User: anonymous   Login
Location: Meetinghouse Hill
(42.7686°N, 71.7752°W)
Time: 21:52:41
(UTC-05:00)
Language:

Iridium 34 - Orbit

View from above orbital plane
View from above orbital plane
View from above satellite
View from above satellite

Ground track
Ground track

The orbit data is extracted from the following two-line orbital elements,

1 24969U 97056E   18008.02445641  .28118293 -13397-5  35827-3 0  9991
2 24969  86.3612 230.1096 0037510  75.0937 285.7049 16.45697571 62280
Epoch (UTC): 08 January 2018 00:35:13
Eccentricity: 0.0037510
inclination: 86.3612°
perigee height: 126 km
apogee height: 175 km
right ascension of ascending node: 230.1096°
argument of perigee: 75.0937°
revolutions per day: 16.45697571
mean anomaly at epoch: 285.7049°
orbit number at epoch: 6228

The dashed part of the orbit path shows where the satellite is in the earth's shadow,  

DLR